Location: Kershaw
(34.5481°N, 80.5823°W)
Time: 11:06:12
(UTC+00:00)

A-11 Canister half - All Passes

Search period start: 05 October 2022 00:00
Search period end: 15 October 2022 00:00
Orbit: 1524 x 1684 km, 47.3° (Epoch: 04 October)

Date Brightness Start Highest point End Pass type
(mag) Time Alt. Az. Time Alt. Az. Time Alt. Az.
05 Oct - 01:03:28 10° NW 01:12:44 55° NNE 01:22:16 10° ESE visible
05 Oct - 03:08:36 10° WNW 03:17:58 61° SW 03:27:40 10° SSE visible
05 Oct - 05:17:23 10° W 05:21:44 14° WSW 05:26:10 10° SSW night (unlit)
05 Oct - 16:27:35 10° SE 16:28:57 10° ESE 16:30:21 10° ESE daylight
05 Oct - 18:23:31 10° SSW 18:32:27 54° SE 18:41:25 10° ENE daylight
05 Oct - 20:28:21 10° WSW 20:37:26 57° NNW 20:46:42 10° NE daylight
05 Oct - 22:35:38 10° WNW 22:44:08 38° N 22:52:50 10° ENE daylight
06 Oct - 00:41:46 10° NW 00:50:59 53° NNE 01:00:27 10° E visible
06 Oct - 02:46:53 10° WNW 02:56:18 64° SW 03:06:01 10° SE visible
06 Oct - 04:55:10 10° W 05:00:07 15° WSW 05:05:08 10° SSW visible
06 Oct - 18:01:56 10° SSW 18:10:49 51° SE 18:19:41 10° ENE daylight
06 Oct - 20:06:35 10° WSW 20:15:43 59° NNW 20:24:58 10° NE daylight
06 Oct - 22:13:51 10° WNW 22:22:21 38° N 22:31:02 10° ENE daylight
07 Oct - 00:20:05 10° NW 00:29:13 52° NNE 00:38:37 10° E visible
07 Oct - 02:25:11 10° WNW 02:34:37 67° SW 02:44:21 10° SE visible
07 Oct - 04:33:03 10° W 04:38:29 16° WSW 04:44:00 10° SSW visible
07 Oct - 17:40:22 10° SSW 17:49:10 48° SE 17:57:57 10° ENE daylight
07 Oct - 19:44:50 10° WSW 19:54:00 62° NNW 20:03:17 10° NE daylight
07 Oct - 21:52:04 10° WNW 22:00:34 38° N 22:09:14 10° ENE daylight
07 Oct - 23:58:23 10° NW 00:07:29 50° NNE 00:16:48 10° E visible
08 Oct - 02:03:29 10° WNW 02:12:56 70° SW 02:22:42 10° SE visible
08 Oct - 04:11:01 10° W 04:16:51 18° SW 04:22:49 10° SSW visible
08 Oct - 17:18:49 10° SSW 17:27:32 46° SE 17:36:12 10° ENE daylight
08 Oct - 19:23:05 10° WSW 19:32:18 64° NNW 19:41:35 10° NE daylight
08 Oct - 21:30:17 10° WNW 21:38:47 38° N 21:47:27 10° ENE daylight
08 Oct - 23:36:41 10° NW 23:45:43 49° NNE 23:54:59 10° E visible
09 Oct - 01:41:47 10° WNW 01:51:15 74° SW 02:01:01 10° SE visible
09 Oct - 03:49:00 10° W 03:55:13 19° SW 04:01:34 10° SSW visible
09 Oct - 16:57:16 10° SSW 17:05:54 43° SE 17:14:27 10° ENE daylight
09 Oct - 19:01:19 10° WSW 19:10:35 66° NNW 19:19:53 10° NE daylight
09 Oct - 21:08:29 10° WNW 21:17:00 38° N 21:25:39 10° ENE daylight
09 Oct - 23:15:00 10° NW 23:23:58 47° NNE 23:33:09 10° E visible
10 Oct - 01:20:06 10° WNW 01:29:33 77° SW 01:39:20 10° SE visible
10 Oct - 03:27:03 10° W 03:33:35 21° SW 03:40:16 10° S visible
10 Oct - 16:35:45 10° SSW 16:44:16 41° SE 16:52:42 10° ENE daylight
10 Oct - 18:39:35 10° WSW 18:48:52 69° NNW 18:58:11 10° NE daylight
10 Oct - 20:46:42 10° WNW 20:55:14 38° N 21:03:52 10° ENE daylight
10 Oct - 22:53:18 10° NW 23:02:12 46° NNE 23:11:19 10° E daylight
11 Oct - 00:58:25 10° NW 01:07:52 80° SW 01:17:39 10° SE visible
11 Oct - 03:05:08 10° W 03:11:57 22° SW 03:18:57 10° S visible
11 Oct - 16:14:14 10° SSW 16:22:38 38° SE 16:30:56 10° ENE daylight
11 Oct - 18:17:51 10° WSW 18:27:10 72° NNW 18:36:29 10° NE daylight
11 Oct - 20:24:55 10° WNW 20:33:27 39° N 20:42:06 10° ENE daylight
11 Oct - 22:31:35 10° NW 22:40:26 45° NNE 22:49:29 10° E daylight
12 Oct - 00:36:44 10° NW 00:46:11 84° SW 00:55:57 10° SE visible
12 Oct - 02:43:14 10° WNW 02:50:19 24° SW 02:57:35 10° S visible
12 Oct - 15:52:43 10° SSW 16:01:00 36° SE 16:09:10 10° ENE daylight
12 Oct - 17:56:08 10° WSW 18:05:28 75° NNW 18:14:48 10° NE daylight
12 Oct - 20:03:07 10° WNW 20:11:41 39° N 20:20:20 10° ENE daylight
12 Oct - 22:09:52 10° NW 22:18:41 44° NNE 22:27:40 10° E daylight
13 Oct - 00:15:03 10° NW 00:24:30 87° SW 00:34:14 10° SE visible
13 Oct - 02:21:22 10° WNW 02:28:41 26° SW 02:36:12 10° S visible
13 Oct - 15:31:15 10° S 15:39:23 34° SE 15:47:23 10° ENE daylight
13 Oct - 17:34:24 10° WSW 17:43:47 78° NNW 17:53:07 10° NE daylight
13 Oct - 19:41:19 10° WNW 19:49:54 40° N 19:58:34 10° ENE daylight
13 Oct - 21:48:09 10° NW 21:56:55 43° NNE 22:05:50 10° E daylight
13 Oct - 23:53:22 10° NW 00:02:48 89° NE 00:12:31 10° SE visible
14 Oct - 01:59:31 10° WNW 02:07:03 27° SW 02:14:46 10° S visible
14 Oct - 15:09:47 10° S 15:17:45 32° SE 15:25:35 10° ENE daylight
14 Oct - 17:12:41 10° WSW 17:22:05 81° NW 17:31:25 10° NE daylight
14 Oct - 19:19:31 10° W 19:28:09 41° NNW 19:36:50 10° ENE daylight
14 Oct - 21:26:26 10° NW 21:35:09 42° NNE 21:44:00 10° E daylight
14 Oct - 23:31:41 10° NW 23:41:06 86° NE 23:50:48 10° SE visible
